Frederick, OK

11:05 PM CDT on March 26, 2017 (GMT -0500)
Frederick Municipal

Weather History for KFDR - November, 2012

Change the Weather History Date:

Friday, November 30, 2012

  Actual Average (KLTS) Record (KLTS)
Temperature  
Mean Temperature 60 °F -  
Max Temperature 77 °F 55 °F 75 °F (1998)
Min Temperature 42 °F 33 °F 21 °F (2005)
Degree Days  
Heating Degree Days 6    
Growing Degree Days 10 (Base 50)    
Moisture  
Dew Point 45 °F    
Average Humidity 74    
Maximum Humidity 100    
Minimum Humidity 29    
Precipitation  
Precipitation 0.00 in - - ()
Sea Level Pressure  
Sea Level Pressure 29.95 in    
Wind  
Wind Speed 9 mph (SSE)    
Max Wind Speed 15 mph    
Max Gust Speed 24 mph    
Visibility 7 miles    
Events Fog    
Averages and records for this station are not official NWS values.
T = Trace of Precipitation, MM = Missing Value Source: NWS Daily Summary

Daily Weather History Graph

Daily Weather History Graph

Search for Another Location

Airport or City:

Trip Planner

Search our weather history database for the weather conditions in past years. The results will help you decide how hot, cold, wet, or windy it might be!

Date:

Astronomy

Nov. 30, 2012 Rise Set
Actual Time 7:23 AM CST 5:25 PM CST
Civil Twilight 6:56 AM CST 5:53 PM CST
Nautical Twilight 6:25 AM CST 6:24 PM CST
Astronomical Twilight 5:54 AM CST 6:54 PM CST
Moon 7:21 PM CST (11/30) 8:56 AM CST (11/30)
Length of Visible Light 10h 57m
Length of Day
10h 02m
Waning Gibbous, 96% of the Moon is Illuminated
Nov 30
Waning Gibbous
Dec 6
Last Quarter
Dec 13
New
Dec 19
First Quarter
Dec 28
Full

Hourly Weather History & Observations

Time (CST) Temp. Windchill Dew Point Humidity Pressure Visibility Wind Dir Wind Speed Gust Speed Precip Events Conditions
12:53 AM 48.9 °F - 44.1 °F 83% 29.98 in 10.0 mi ESE 9.2 mph - N/A   Clear
1:53 AM 46.9 °F - 44.1 °F 90% 29.96 in 10.0 mi SE 8.1 mph - N/A   Clear
2:53 AM 46.0 °F 41.4 °F 43.0 °F 89% 29.97 in 9.0 mi ESE 9.2 mph - N/A   Clear
3:53 AM 45.0 °F 41.2 °F 43.0 °F 93% 29.96 in 8.0 mi SSE 6.9 mph - N/A   Clear
4:53 AM 46.9 °F - 45.0 °F 93% 29.96 in 7.0 mi SSE 9.2 mph - N/A   Clear
5:53 AM 45.0 °F 43.5 °F 43.0 °F 93% 29.97 in 5.0 mi South 3.5 mph - N/A   Clear
6:43 AM 42.8 °F 38.0 °F 42.8 °F 100% 29.99 in 1.8 mi South 8.1 mph - N/A   Clear
6:53 AM 43.0 °F 38.2 °F 42.1 °F 97% 29.98 in 0.8 mi South 8.1 mph - N/A   Clear
7:18 AM 42.8 °F 38.6 °F 41.0 °F 93% 30.00 in 0.2 mi East 6.9 mph - N/A Fog Fog
7:53 AM 42.1 °F 37.7 °F 41.0 °F 96% 30.01 in 0.2 mi ESE 6.9 mph - N/A Fog Fog
8:25 AM 46.4 °F 42.9 °F 44.6 °F 93% 30.02 in 1.0 mi SE 6.9 mph - N/A   Mist
8:29 AM 46.4 °F 43.5 °F 44.6 °F 93% 30.02 in 2.5 mi SE 5.8 mph - N/A   Partly Cloudy
8:36 AM 46.4 °F 44.3 °F 44.6 °F 93% 30.02 in 4.0 mi SE 4.6 mph - N/A   Partly Cloudy
8:53 AM 48.9 °F - 46.9 °F 93% 30.01 in 5.0 mi SE 4.6 mph - N/A   Clear
9:53 AM 57.0 °F - 50.0 °F 77% 29.99 in 10.0 mi South 12.7 mph - N/A   Clear
11:53 AM 66.9 °F - 48.9 °F 52% 29.96 in 10.0 mi South 12.7 mph - N/A   Clear
12:53 PM 72.0 °F - 48.0 °F 43% 29.94 in 10.0 mi SSW 13.8 mph - N/A   Clear
1:53 PM 73.9 °F - 46.0 °F 37% 29.91 in 10.0 mi SW 15.0 mph 24.2 mph N/A   Clear
2:53 PM 77.0 °F - 42.1 °F 29% 29.89 in 10.0 mi SSW 11.5 mph - N/A   Clear
3:53 PM 75.9 °F - 41.0 °F 29% 29.89 in 10.0 mi SW 12.7 mph - N/A   Clear
4:53 PM 71.1 °F - 45.0 °F 39% 29.89 in 10.0 mi South 9.2 mph - N/A   Clear
5:53 PM 63.0 °F - 44.1 °F 50% 29.89 in 10.0 mi SE 9.2 mph - N/A   Clear
6:53 PM 61.0 °F - 46.0 °F 58% 29.90 in 10.0 mi SE 11.5 mph - N/A   Clear
7:53 PM 61.0 °F - 48.0 °F 62% 29.90 in 10.0 mi SE 11.5 mph - N/A   Clear
8:53 PM 57.9 °F - 46.9 °F 67% 29.89 in 10.0 mi SSE 10.4 mph - N/A   Clear
10:53 PM 57.0 °F - 48.0 °F 72% 29.90 in 10.0 mi SSE 11.5 mph - N/A   Clear
11:53 PM 57.9 °F - 50.0 °F 75% 29.89 in 10.0 mi South 12.7 mph - N/A   Clear